Location: Grange Verzio
(44.5000°N, 6.9833°E)
Time: 23:32:58
(UTC+00:00)

Cosmos 2219 Rocket - Visible Passes

Search period start: 14 April 2024 00:00
Search period end: 24 April 2024 00:00
Orbit: 829 x 844 km, 71.0° (Epoch: 13 April)

Date Brightness Start Highest point End Pass type
(mag) Time Alt. Az. Time Alt. Az. Time Alt. Az.
14 Apr 3.9 00:27:21 25° ENE 00:27:21 25° ENE 00:30:25 10° NE visible
14 Apr 2.7 02:09:03 42° WNW 02:09:22 43° WNW 02:14:41 10° NNE visible
15 Apr 4.0 00:11:05 22° ENE 00:11:05 22° ENE 00:13:45 10° NE visible
15 Apr 2.7 01:52:47 46° WNW 01:52:47 46° WNW 01:58:08 10° NNE visible
15 Apr 4.2 23:54:47 20° ENE 23:54:47 20° ENE 23:57:03 10° NE visible
16 Apr 2.7 01:36:28 49° NW 01:36:28 49° NW 01:41:35 10° NNE visible
16 Apr 4.4 03:20:19 10° NW 03:21:32 11° NW 03:22:44 10° NNW visible
16 Apr 4.3 23:38:27 18° ENE 23:38:27 18° ENE 23:40:21 10° NE visible
17 Apr 2.7 01:20:08 51° NW 01:20:08 51° NW 01:25:01 10° NNE visible
17 Apr 4.4 03:03:07 10° NW 03:04:50 11° NW 03:06:35 10° NNW visible
17 Apr 4.4 23:22:06 16° ENE 23:22:06 16° ENE 23:23:38 10° NE visible
18 Apr 2.7 01:03:47 52° NNW 01:03:47 52° NNW 01:08:27 10° NNE visible
18 Apr 4.4 02:46:02 10° WNW 02:48:10 12° NW 02:50:18 10° NNW visible
18 Apr 4.4 23:05:42 14° ENE 23:05:42 14° ENE 23:06:54 10° NE visible
19 Apr 2.8 00:47:23 52° NNW 00:47:23 52° NNW 00:51:54 10° NNE visible
19 Apr 4.4 02:29:05 10° WNW 02:31:29 13° NW 02:33:57 10° NNW visible
19 Apr 4.5 22:49:17 13° ENE 22:49:17 13° ENE 22:50:09 10° ENE visible
20 Apr 2.8 00:30:58 51° N 00:30:58 51° N 00:35:20 10° NNE visible
20 Apr 4.3 02:12:39 11° WNW 02:14:49 14° NW 02:17:34 10° N visible
20 Apr 4.5 22:32:51 12° ENE 22:32:51 12° ENE 22:33:22 10° ENE visible
21 Apr 2.9 00:14:31 51° N 00:14:31 51° N 00:18:46 10° NNE visible
21 Apr 4.3 01:56:12 12° WNW 01:58:08 14° NW 02:01:09 10° N visible
21 Apr 4.6 22:16:22 11° ENE 22:16:22 11° ENE 22:16:33 10° ENE visible
21 Apr 2.9 23:58:03 50° N 23:58:03 50° N 00:02:11 10° NNE visible
22 Apr 4.2 01:39:43 14° WNW 01:41:28 15° NW 01:44:43 10° N visible
22 Apr 2.9 23:41:32 50° NNE 23:41:32 50° NNE 23:45:36 10° NNE visible
23 Apr 4.2 01:23:13 15° WNW 01:24:49 16° NW 01:28:17 10° N visible
23 Apr 2.9 23:24:59 49° NNE 23:24:59 49° NNE 23:29:01 10° NNE visible
